Year,Month,Day,Hour,Minute,Value (Times are PST for temperature in C)
2009,07,05,00,00,17.20
2009,07,05,00,01,17.20
2009,07,05,00,02,17.20
2009,07,05,00,03,17.20
2009,07,05,00,04,17.20
2009,07,05,00,05,17.20
2009,07,05,00,06,17.20
2009,07,05,00,07,17.30
2009,07,05,00,08,17.30
2009,07,05,00,09,17.30
2009,07,05,00,10,17.30
2009,07,05,00,11,17.40
2009,07,05,00,12,17.40
2009,07,05,00,13,17.50
2009,07,05,00,14,17.50
2009,07,05,00,15,17.60
2009,07,05,00,16,17.60
2009,07,05,00,17,17.60
2009,07,05,00,18,17.60
2009,07,05,00,19,17.70
2009,07,05,00,20,17.70
2009,07,05,00,21,17.80
2009,07,05,00,22,17.90
2009,07,05,00,23,17.90
2009,07,05,00,24,18.00
2009,07,05,00,25,18.10
2009,07,05,00,26,18.20
2009,07,05,00,27,18.30
2009,07,05,00,28,18.40
2009,07,05,00,29,18.50
2009,07,05,00,30,18.60
2009,07,05,00,31,18.70
2009,07,05,00,32,18.70
2009,07,05,00,33,18.90
2009,07,05,00,34,19.00
2009,07,05,00,35,19.10
2009,07,05,00,36,19.20
2009,07,05,00,37,19.30
2009,07,05,00,38,19.40
2009,07,05,00,39,19.50
2009,07,05,00,40,19.60
2009,07,05,00,41,19.70
2009,07,05,00,42,19.70
2009,07,05,00,43,19.80
2009,07,05,00,44,19.80
2009,07,05,00,45,19.80
2009,07,05,00,46,19.80
2009,07,05,00,47,19.90
2009,07,05,00,48,19.90
2009,07,05,00,49,20.00
2009,07,05,00,50,20.00
2009,07,05,00,51,20.10
2009,07,05,00,52,20.20
2009,07,05,00,53,20.30
2009,07,05,00,54,20.30
2009,07,05,00,55,20.40
2009,07,05,00,56,20.40
2009,07,05,00,57,20.40
2009,07,05,00,58,20.50
2009,07,05,00,59,20.50
2009,07,05,01,00,20.50
2009,07,05,01,01,20.50
2009,07,05,01,02,20.50
2009,07,05,01,03,20.50
2009,07,05,01,04,20.50
2009,07,05,01,05,20.50
2009,07,05,01,06,20.40
2009,07,05,01,07,20.40
2009,07,05,01,08,20.30
2009,07,05,01,09,20.30
2009,07,05,01,10,20.20
2009,07,05,01,11,20.20
2009,07,05,01,12,20.10
2009,07,05,01,13,20.00
2009,07,05,01,14,19.90
2009,07,05,01,15,19.80
2009,07,05,01,16,19.70
2009,07,05,01,17,19.70
2009,07,05,01,18,19.60
2009,07,05,01,19,19.50
2009,07,05,01,20,19.50
2009,07,05,01,21,19.40
2009,07,05,01,22,19.40
2009,07,05,01,23,19.30
2009,07,05,01,24,19.20
2009,07,05,01,25,19.20
2009,07,05,01,26,19.00
2009,07,05,01,27,19.00
2009,07,05,01,28,18.90
2009,07,05,01,29,18.80
2009,07,05,01,30,18.70
2009,07,05,01,31,18.70
2009,07,05,01,32,18.60
2009,07,05,01,33,18.50
2009,07,05,01,34,18.50
2009,07,05,01,35,18.40
2009,07,05,01,36,18.30
2009,07,05,01,37,18.30
2009,07,05,01,38,18.20
2009,07,05,01,39,18.20
2009,07,05,01,40,18.20
2009,07,05,01,41,18.10
2009,07,05,01,42,18.10
2009,07,05,01,43,18.10
2009,07,05,01,44,18.00
2009,07,05,01,45,18.00
2009,07,05,01,46,18.00
2009,07,05,01,47,18.00
2009,07,05,01,48,18.00
2009,07,05,01,49,17.90
2009,07,05,01,50,17.90
2009,07,05,01,51,17.90
2009,07,05,01,52,17.90
2009,07,05,01,53,17.90
2009,07,05,01,54,17.90
2009,07,05,01,55,17.90
2009,07,05,01,56,17.90
2009,07,05,01,57,17.90
2009,07,05,01,58,17.90
2009,07,05,01,59,17.90
2009,07,05,02,00,17.90
2009,07,05,02,01,17.90
2009,07,05,02,02,17.90
2009,07,05,02,03,17.90
2009,07,05,02,04,17.90
2009,07,05,02,05,17.90
2009,07,05,02,06,17.90
2009,07,05,02,07,17.90
2009,07,05,02,08,17.80
2009,07,05,02,09,17.80
2009,07,05,02,10,17.80
2009,07,05,02,11,17.80
2009,07,05,02,12,17.80
2009,07,05,02,13,17.80
2009,07,05,02,14,17.80
2009,07,05,02,15,17.80
2009,07,05,02,16,17.80
2009,07,05,02,17,17.80
2009,07,05,02,18,17.80
2009,07,05,02,19,17.90
2009,07,05,02,20,17.80
2009,07,05,02,21,17.80
2009,07,05,02,22,17.80
2009,07,05,02,23,17.80
2009,07,05,02,24,17.80
2009,07,05,02,25,17.70
2009,07,05,02,26,17.70
2009,07,05,02,27,17.70
2009,07,05,02,28,17.70
2009,07,05,02,29,17.70
2009,07,05,02,30,17.70
2009,07,05,02,31,17.70
2009,07,05,02,32,17.70
2009,07,05,02,33,17.70
2009,07,05,02,34,17.70
2009,07,05,02,35,17.70
2009,07,05,02,36,17.60
2009,07,05,02,37,17.60
2009,07,05,02,38,17.60
2009,07,05,02,39,17.60
2009,07,05,02,40,17.60
2009,07,05,02,41,17.60
2009,07,05,02,42,17.60
2009,07,05,02,43,17.60
2009,07,05,02,44,17.60
2009,07,05,02,45,17.60
2009,07,05,02,46,17.70
2009,07,05,02,47,17.70
2009,07,05,02,48,17.70
2009,07,05,02,49,17.80
2009,07,05,02,50,17.90
2009,07,05,02,51,18.00
2009,07,05,02,52,18.10
2009,07,05,02,53,18.10
2009,07,05,02,54,18.20
2009,07,05,02,55,18.30
2009,07,05,02,56,18.40
2009,07,05,02,57,18.40
2009,07,05,02,58,18.50
2009,07,05,02,59,18.60
2009,07,05,03,00,18.60
2009,07,05,03,01,18.70
2009,07,05,03,02,18.70
2009,07,05,03,03,18.70
2009,07,05,03,04,18.70
2009,07,05,03,05,18.80
2009,07,05,03,06,18.80
2009,07,05,03,07,18.80
2009,07,05,03,08,18.90
2009,07,05,03,09,18.90
2009,07,05,03,10,18.90
2009,07,05,03,11,18.90
2009,07,05,03,12,19.00
2009,07,05,03,13,19.00
2009,07,05,03,14,18.90
2009,07,05,03,15,18.90
2009,07,05,03,16,18.90
2009,07,05,03,17,18.90
2009,07,05,03,18,18.90
2009,07,05,03,19,18.90
2009,07,05,03,20,19.00
2009,07,05,03,21,19.00
2009,07,05,03,22,19.00
2009,07,05,03,23,19.00
2009,07,05,03,24,19.00
2009,07,05,03,25,19.10
2009,07,05,03,26,19.10
2009,07,05,03,27,19.10
2009,07,05,03,28,19.10
2009,07,05,03,29,19.10
2009,07,05,03,30,19.10
2009,07,05,03,31,19.10
2009,07,05,03,32,19.20
2009,07,05,03,33,19.20
2009,07,05,03,34,19.20
2009,07,05,03,35,19.30
2009,07,05,03,36,19.30
2009,07,05,03,37,19.30
2009,07,05,03,38,19.30
2009,07,05,03,39,19.30
2009,07,05,03,40,19.30
2009,07,05,03,41,19.40
2009,07,05,03,42,19.40
2009,07,05,03,43,19.40
2009,07,05,03,44,19.40
2009,07,05,03,45,19.40
2009,07,05,03,46,19.40
2009,07,05,03,47,19.50
2009,07,05,03,48,19.50
2009,07,05,03,49,19.50
2009,07,05,03,50,19.40
2009,07,05,03,51,19.40
2009,07,05,03,52,19.40
2009,07,05,03,53,19.40
2009,07,05,03,54,19.40
2009,07,05,03,55,19.40
2009,07,05,03,56,19.40
2009,07,05,03,57,19.30
2009,07,05,03,58,19.30
2009,07,05,03,59,19.30
2009,07,05,04,00,19.30
2009,07,05,04,01,19.30
2009,07,05,04,02,19.30
2009,07,05,04,03,19.20
2009,07,05,04,04,19.20
2009,07,05,04,05,19.20
2009,07,05,04,06,19.20
2009,07,05,04,07,19.20
2009,07,05,04,08,19.20
2009,07,05,04,09,19.20
2009,07,05,04,10,19.20
2009,07,05,04,11,19.20
2009,07,05,04,12,19.20
2009,07,05,04,13,19.10
2009,07,05,04,14,19.10
2009,07,05,04,15,19.10
2009,07,05,04,16,19.10
2009,07,05,04,17,19.00
2009,07,05,04,18,19.00
2009,07,05,04,19,19.00
2009,07,05,04,20,19.00
2009,07,05,04,21,18.90
2009,07,05,04,22,18.90
2009,07,05,04,23,18.90
2009,07,05,04,24,18.90
2009,07,05,04,25,18.80
2009,07,05,04,26,18.80
2009,07,05,04,27,18.70
2009,07,05,04,28,18.70
2009,07,05,04,29,18.70
2009,07,05,04,30,18.60
2009,07,05,04,31,18.60
2009,07,05,04,32,18.60
2009,07,05,04,33,18.50
2009,07,05,04,34,18.50
2009,07,05,04,35,18.50
2009,07,05,04,36,18.40
2009,07,05,04,37,18.40
2009,07,05,04,38,18.40
2009,07,05,04,39,18.40
2009,07,05,04,40,18.40
2009,07,05,04,41,18.40
2009,07,05,04,42,18.40
2009,07,05,04,43,18.40
2009,07,05,04,44,18.40
2009,07,05,04,45,18.30
2009,07,05,04,46,18.30
2009,07,05,04,47,18.30
2009,07,05,04,48,18.20
2009,07,05,04,49,18.20
2009,07,05,04,50,18.20
2009,07,05,04,51,18.20
2009,07,05,04,52,18.20
2009,07,05,04,53,18.20
2009,07,05,04,54,18.20
2009,07,05,04,55,18.20
2009,07,05,04,56,18.20
2009,07,05,04,57,18.20
2009,07,05,04,58,18.20
2009,07,05,04,59,18.10
2009,07,05,05,00,18.10
2009,07,05,05,01,18.10
2009,07,05,05,02,18.00
2009,07,05,05,03,18.00
2009,07,05,05,04,18.00
2009,07,05,05,05,17.90
2009,07,05,05,06,17.90
2009,07,05,05,07,17.90
2009,07,05,05,08,17.90
2009,07,05,05,09,17.80
2009,07,05,05,10,17.80
2009,07,05,05,11,17.80
2009,07,05,05,12,17.80
2009,07,05,05,13,17.70
2009,07,05,05,14,17.70
2009,07,05,05,15,17.70
2009,07,05,05,16,17.70
2009,07,05,05,17,17.70
2009,07,05,05,18,17.70
2009,07,05,05,19,17.70
2009,07,05,05,20,17.60
2009,07,05,05,21,17.60
2009,07,05,05,22,17.60
2009,07,05,05,23,17.60
2009,07,05,05,24,17.60
2009,07,05,05,25,17.60
2009,07,05,05,26,17.60
2009,07,05,05,27,17.60
2009,07,05,05,28,17.60
2009,07,05,05,29,17.50
2009,07,05,05,30,17.50
2009,07,05,05,31,17.50
2009,07,05,05,32,17.40
2009,07,05,05,33,17.40
2009,07,05,05,34,17.40
2009,07,05,05,35,17.40
2009,07,05,05,36,17.30
2009,07,05,05,37,17.30
2009,07,05,05,38,17.30
2009,07,05,05,39,17.30
2009,07,05,05,40,17.30
2009,07,05,05,41,17.20
2009,07,05,05,42,17.20
2009,07,05,05,43,17.20
2009,07,05,05,44,17.20
2009,07,05,05,45,17.20
2009,07,05,05,46,17.20
2009,07,05,05,47,17.20
2009,07,05,05,48,17.20
2009,07,05,05,49,17.20
2009,07,05,05,50,17.30
2009,07,05,05,51,17.30
2009,07,05,05,52,17.30
2009,07,05,05,53,17.30
2009,07,05,05,54,17.30
2009,07,05,05,55,17.30
2009,07,05,05,56,17.30
2009,07,05,05,57,17.40
2009,07,05,05,58,17.40
2009,07,05,05,59,17.40
2009,07,05,06,00,17.40
2009,07,05,06,01,17.40
2009,07,05,06,02,17.50
2009,07,05,06,03,17.50
2009,07,05,06,04,17.50
2009,07,05,06,05,17.50
2009,07,05,06,06,17.60
2009,07,05,06,07,17.60
2009,07,05,06,08,17.60
2009,07,05,06,09,17.60
2009,07,05,06,10,17.60
2009,07,05,06,11,17.60
2009,07,05,06,12,17.60
2009,07,05,06,13,17.70
2009,07,05,06,14,17.70
2009,07,05,06,15,17.70
2009,07,05,06,16,17.70
2009,07,05,06,17,17.70
2009,07,05,06,18,17.70
2009,07,05,06,19,17.80
2009,07,05,06,20,17.80
2009,07,05,06,21,17.80
2009,07,05,06,22,17.80
2009,07,05,06,23,17.80
2009,07,05,06,24,17.90
2009,07,05,06,25,17.90
2009,07,05,06,26,17.90
2009,07,05,06,27,17.90
2009,07,05,06,28,17.90
2009,07,05,06,29,17.90
2009,07,05,06,30,17.90
2009,07,05,06,31,17.90
2009,07,05,06,32,17.90
2009,07,05,06,33,17.90
2009,07,05,06,34,17.90
2009,07,05,06,35,17.90
2009,07,05,06,36,17.90
2009,07,05,06,37,17.90
2009,07,05,06,38,17.90
2009,07,05,06,39,17.90
2009,07,05,06,40,17.90
2009,07,05,06,41,17.90
2009,07,05,06,42,17.90
2009,07,05,06,43,17.90
2009,07,05,06,44,17.90
2009,07,05,06,45,17.80
2009,07,05,06,46,17.80
2009,07,05,06,47,17.80
2009,07,05,06,48,17.80
2009,07,05,06,49,17.80
2009,07,05,06,50,17.80
2009,07,05,06,51,17.80
2009,07,05,06,52,17.80
2009,07,05,06,53,17.80
2009,07,05,06,54,17.80
2009,07,05,06,55,17.80
2009,07,05,06,56,17.80
2009,07,05,06,57,17.80
2009,07,05,06,58,17.80
2009,07,05,06,59,17.80
2009,07,05,07,00,17.80
2009,07,05,07,01,17.80
2009,07,05,07,02,17.80
2009,07,05,07,03,17.80
2009,07,05,07,04,17.80
2009,07,05,07,05,17.80
2009,07,05,07,06,17.80
2009,07,05,07,07,17.80
2009,07,05,07,08,17.80
2009,07,05,07,09,17.80
2009,07,05,07,10,17.80
2009,07,05,07,11,17.80
2009,07,05,07,12,17.80
2009,07,05,07,13,17.80
2009,07,05,07,14,17.80
2009,07,05,07,15,17.80
2009,07,05,07,16,17.80
2009,07,05,07,17,17.80
2009,07,05,07,18,17.80
2009,07,05,07,19,17.80
2009,07,05,07,20,17.80
2009,07,05,07,21,17.80
2009,07,05,07,22,17.80
2009,07,05,07,23,17.80
2009,07,05,07,24,17.80
2009,07,05,07,25,17.80
2009,07,05,07,26,17.80
2009,07,05,07,27,17.80
2009,07,05,07,28,17.80
2009,07,05,07,29,17.80
2009,07,05,07,30,17.80
2009,07,05,07,31,17.80
2009,07,05,07,32,17.80
2009,07,05,07,33,17.90
2009,07,05,07,34,17.90
2009,07,05,07,35,17.90
2009,07,05,07,36,17.90
2009,07,05,07,37,17.90
2009,07,05,07,38,17.90
2009,07,05,07,39,17.90
2009,07,05,07,40,17.90
2009,07,05,07,41,17.90
2009,07,05,07,42,17.90
2009,07,05,07,43,17.90
2009,07,05,07,44,17.80
2009,07,05,07,45,17.80
2009,07,05,07,46,17.80
2009,07,05,07,47,17.80
2009,07,05,07,48,17.80
2009,07,05,07,49,17.80
2009,07,05,07,50,17.80
2009,07,05,07,51,17.80
2009,07,05,07,52,17.80
2009,07,05,07,53,17.90
2009,07,05,07,54,17.90
2009,07,05,07,55,17.90
2009,07,05,07,56,17.90
2009,07,05,07,57,17.90
2009,07,05,07,58,17.90
2009,07,05,07,59,18.00
2009,07,05,08,00,18.00
2009,07,05,08,01,18.10
2009,07,05,08,02,18.10
2009,07,05,08,03,18.10
2009,07,05,08,04,18.10
2009,07,05,08,05,18.10
2009,07,05,08,06,18.20
2009,07,05,08,07,18.20
2009,07,05,08,08,18.20
2009,07,05,08,09,18.30
2009,07,05,08,10,18.30
2009,07,05,08,11,18.40
2009,07,05,08,12,18.40
2009,07,05,08,13,18.50
2009,07,05,08,14,18.50
2009,07,05,08,15,18.50
2009,07,05,08,16,18.60
2009,07,05,08,17,18.60
2009,07,05,08,18,18.70
2009,07,05,08,19,18.70
2009,07,05,08,20,18.80
2009,07,05,08,21,18.80
2009,07,05,08,22,18.80
2009,07,05,08,23,18.80
2009,07,05,08,24,18.80
2009,07,05,08,25,18.80
2009,07,05,08,26,18.80
2009,07,05,08,27,18.80
2009,07,05,08,28,18.80
2009,07,05,08,29,18.80
2009,07,05,08,30,18.70
2009,07,05,08,31,18.70
2009,07,05,08,32,18.60
2009,07,05,08,33,18.60
2009,07,05,08,34,18.60
2009,07,05,08,35,18.60
2009,07,05,08,36,18.60
2009,07,05,08,37,18.70
2009,07,05,08,38,18.70
2009,07,05,08,39,18.70
2009,07,05,08,40,18.70
2009,07,05,08,41,18.70
2009,07,05,08,42,18.70
2009,07,05,08,43,18.80
2009,07,05,08,44,18.80
2009,07,05,08,45,18.80
2009,07,05,08,46,18.90
2009,07,05,08,47,18.90
2009,07,05,08,48,19.00
2009,07,05,08,49,19.00
2009,07,05,08,50,19.10
2009,07,05,08,51,19.10
2009,07,05,08,52,19.20
2009,07,05,08,53,19.20
2009,07,05,08,54,19.20
2009,07,05,08,55,19.30
2009,07,05,08,56,19.30
2009,07,05,08,57,19.30
2009,07,05,08,58,19.40
2009,07,05,08,59,19.40
2009,07,05,09,00,19.40
2009,07,05,09,01,19.40
2009,07,05,09,02,19.40
2009,07,05,09,03,19.50
2009,07,05,09,04,19.50
2009,07,05,09,05,19.50
2009,07,05,09,06,19.50
2009,07,05,09,07,19.50
2009,07,05,09,08,19.50
2009,07,05,09,09,19.60
2009,07,05,09,10,19.60
2009,07,05,09,11,19.60
2009,07,05,09,12,19.70
2009,07,05,09,13,19.70
2009,07,05,09,14,19.70
2009,07,05,09,15,19.70
2009,07,05,09,16,19.80
2009,07,05,09,17,19.80
2009,07,05,09,18,19.70
2009,07,05,09,19,19.70
2009,07,05,09,20,19.60
2009,07,05,09,21,19.50
2009,07,05,09,22,19.40
2009,07,05,09,23,19.30
2009,07,05,09,24,19.20
2009,07,05,09,25,19.10
2009,07,05,09,26,19.00
2009,07,05,09,27,19.00
2009,07,05,09,28,18.90
2009,07,05,09,29,18.90
2009,07,05,09,30,18.90
2009,07,05,09,31,18.90
2009,07,05,09,32,18.90
2009,07,05,09,33,18.90
2009,07,05,09,34,18.90
2009,07,05,09,35,18.90
2009,07,05,09,36,18.90
2009,07,05,09,37,18.90
2009,07,05,09,38,18.90
2009,07,05,09,39,18.90
2009,07,05,09,40,18.90
2009,07,05,09,41,18.90
2009,07,05,09,42,18.90
2009,07,05,09,43,18.90
2009,07,05,09,44,18.90
2009,07,05,09,45,18.90
2009,07,05,09,46,18.90
2009,07,05,09,47,18.80
2009,07,05,09,48,18.80
2009,07,05,09,49,18.80
2009,07,05,09,50,18.80
2009,07,05,09,51,18.90
2009,07,05,09,52,18.90
2009,07,05,09,53,18.90
2009,07,05,09,54,18.80
2009,07,05,09,55,18.80
2009,07,05,09,56,18.80
2009,07,05,09,57,18.80
2009,07,05,09,58,18.80
2009,07,05,09,59,18.90
2009,07,05,10,00,18.90
2009,07,05,10,01,18.80
2009,07,05,10,02,18.90
2009,07,05,10,03,18.90
2009,07,05,10,04,18.90
2009,07,05,10,05,18.90
2009,07,05,10,06,18.90
2009,07,05,10,07,18.90
2009,07,05,10,08,18.90
2009,07,05,10,09,19.00
2009,07,05,10,10,19.10
2009,07,05,10,11,19.10
2009,07,05,10,12,19.10
2009,07,05,10,13,19.10
2009,07,05,10,14,19.10
2009,07,05,10,15,19.10
2009,07,05,10,16,19.10
2009,07,05,10,17,19.10
2009,07,05,10,18,19.20
2009,07,05,10,19,19.20
2009,07,05,10,20,19.20
2009,07,05,10,21,19.30
2009,07,05,10,22,19.30
2009,07,05,10,23,19.40
2009,07,05,10,24,19.40
2009,07,05,10,25,19.40
2009,07,05,10,26,19.50
2009,07,05,10,27,19.60
2009,07,05,10,28,19.60
2009,07,05,10,29,19.70
2009,07,05,10,30,19.70
2009,07,05,10,31,19.70
2009,07,05,10,32,19.70
2009,07,05,10,33,19.70
2009,07,05,10,34,19.80
2009,07,05,10,35,19.80
2009,07,05,10,36,19.90
2009,07,05,10,37,19.90
2009,07,05,10,38,20.00
2009,07,05,10,39,20.00
2009,07,05,10,40,20.00
2009,07,05,10,41,20.10
2009,07,05,10,42,20.10
2009,07,05,10,43,20.20
2009,07,05,10,44,20.30
2009,07,05,10,45,20.40
2009,07,05,10,46,20.50
2009,07,05,10,47,20.50
2009,07,05,10,48,20.60
2009,07,05,10,49,20.60
2009,07,05,10,50,20.70
2009,07,05,10,51,20.80
2009,07,05,10,52,20.80
2009,07,05,10,53,20.90
2009,07,05,10,54,20.90
2009,07,05,10,55,21.00
2009,07,05,10,56,21.00
2009,07,05,10,57,21.10
2009,07,05,10,58,21.10
2009,07,05,10,59,21.20
2009,07,05,11,00,21.20
2009,07,05,11,01,21.20
2009,07,05,11,02,21.20
2009,07,05,11,03,21.20
2009,07,05,11,04,21.30
2009,07,05,11,05,21.30
2009,07,05,11,06,21.30
2009,07,05,11,07,21.20
2009,07,05,11,08,21.30
2009,07,05,11,09,21.30
2009,07,05,11,10,21.30
2009,07,05,11,11,21.30
2009,07,05,11,12,21.20
2009,07,05,11,13,21.10
2009,07,05,11,14,21.10
2009,07,05,11,15,21.00
2009,07,05,11,16,20.90
2009,07,05,11,17,20.90
2009,07,05,11,18,20.90
2009,07,05,11,19,20.90
2009,07,05,11,20,21.00
2009,07,05,11,21,21.10
2009,07,05,11,22,21.20
2009,07,05,11,23,21.30
2009,07,05,11,24,21.30
2009,07,05,11,25,21.40
2009,07,05,11,26,21.50
2009,07,05,11,27,21.50
2009,07,05,11,28,21.50
2009,07,05,11,29,21.60
2009,07,05,11,30,21.60
2009,07,05,11,31,21.60
2009,07,05,11,32,21.60
2009,07,05,11,33,21.70
2009,07,05,11,34,21.80
2009,07,05,11,35,21.90
2009,07,05,11,36,22.00
2009,07,05,11,37,22.10
2009,07,05,11,38,22.10
2009,07,05,11,39,21.90
2009,07,05,11,40,21.80
2009,07,05,11,41,21.90
2009,07,05,11,42,21.90
2009,07,05,11,43,22.00
2009,07,05,11,44,22.10
2009,07,05,11,45,22.20
2009,07,05,11,46,22.40
2009,07,05,11,47,22.50
2009,07,05,11,48,22.60
2009,07,05,11,49,22.70
2009,07,05,11,50,22.70
2009,07,05,11,51,22.70
2009,07,05,11,52,22.70
2009,07,05,11,53,22.70
2009,07,05,11,54,22.60
2009,07,05,11,55,22.60
2009,07,05,11,56,22.50
2009,07,05,11,57,22.50
2009,07,05,11,58,22.40
2009,07,05,11,59,22.40
2009,07,05,12,00,22.20
2009,07,05,12,01,22.00
2009,07,05,12,02,21.90
2009,07,05,12,03,21.80
2009,07,05,12,04,21.80
2009,07,05,12,05,21.80
2009,07,05,12,06,21.70
2009,07,05,12,07,21.60
2009,07,05,12,08,21.60
2009,07,05,12,09,21.60
2009,07,05,12,10,21.60
2009,07,05,12,11,21.60
2009,07,05,12,12,21.50
2009,07,05,12,13,21.40
2009,07,05,12,14,21.40
2009,07,05,12,15,21.40
2009,07,05,12,16,21.50
2009,07,05,12,17,21.60
2009,07,05,12,18,21.60
2009,07,05,12,19,21.70
2009,07,05,12,20,21.80
2009,07,05,12,21,21.80
2009,07,05,12,22,21.80
2009,07,05,12,23,21.90
2009,07,05,12,24,22.00
2009,07,05,12,25,22.10
2009,07,05,12,26,22.20
2009,07,05,12,27,22.30
2009,07,05,12,28,22.30
2009,07,05,12,29,22.30
2009,07,05,12,30,22.30
2009,07,05,12,31,22.30
2009,07,05,12,32,22.40
2009,07,05,12,33,22.50
2009,07,05,12,34,22.60
2009,07,05,12,35,22.70
2009,07,05,12,36,23.00
2009,07,05,12,37,23.10
2009,07,05,12,38,23.10
2009,07,05,12,39,23.30
2009,07,05,12,40,23.40
2009,07,05,12,41,23.40
2009,07,05,12,42,23.40
2009,07,05,12,43,23.40
2009,07,05,12,44,23.50
2009,07,05,12,45,23.60
2009,07,05,12,46,23.60
2009,07,05,12,47,23.60
2009,07,05,12,48,23.50
2009,07,05,12,49,23.40
2009,07,05,12,50,23.30
2009,07,05,12,51,23.30
2009,07,05,12,52,23.30
2009,07,05,12,53,23.30
2009,07,05,12,54,23.40
2009,07,05,12,55,23.60
2009,07,05,12,56,23.60
2009,07,05,12,57,23.70
2009,07,05,12,58,23.70
2009,07,05,12,59,23.70
2009,07,05,13,00,23.70
2009,07,05,13,01,23.70
2009,07,05,13,02,23.60
2009,07,05,13,03,23.50
2009,07,05,13,04,23.40
2009,07,05,13,05,23.20
2009,07,05,13,06,23.00
2009,07,05,13,07,22.90
2009,07,05,13,08,22.80
2009,07,05,13,09,22.70
2009,07,05,13,10,22.70
2009,07,05,13,11,22.70
2009,07,05,13,12,22.60
2009,07,05,13,13,22.60
2009,07,05,13,14,22.50
2009,07,05,13,15,22.50
2009,07,05,13,16,22.60
2009,07,05,13,17,22.60
2009,07,05,13,18,22.70
2009,07,05,13,19,22.80
2009,07,05,13,20,22.90
2009,07,05,13,21,23.10
2009,07,05,13,22,23.20
2009,07,05,13,23,23.20
2009,07,05,13,24,23.40
2009,07,05,13,25,23.50
2009,07,05,13,26,23.60
2009,07,05,13,27,23.60
2009,07,05,13,28,23.60
2009,07,05,13,29,23.60
2009,07,05,13,30,23.60
2009,07,05,13,31,23.60
2009,07,05,13,32,23.60
2009,07,05,13,33,23.60
2009,07,05,13,34,23.60
2009,07,05,13,35,23.60
2009,07,05,13,36,23.70
2009,07,05,13,37,23.80
2009,07,05,13,38,23.90
2009,07,05,13,39,24.00
2009,07,05,13,40,24.10
2009,07,05,13,41,24.20
2009,07,05,13,42,24.30
2009,07,05,13,43,24.40
2009,07,05,13,44,24.50
2009,07,05,13,45,24.60
2009,07,05,13,46,24.60
2009,07,05,13,47,24.70
2009,07,05,13,48,24.80
2009,07,05,13,49,25.00
2009,07,05,13,50,25.10
2009,07,05,13,51,25.00
2009,07,05,13,52,24.80
2009,07,05,13,53,24.70
2009,07,05,13,54,24.70
2009,07,05,13,55,24.60
2009,07,05,13,56,24.40
2009,07,05,13,57,24.30
2009,07,05,13,58,24.20
2009,07,05,13,59,24.10
2009,07,05,14,00,24.00
2009,07,05,14,01,23.90
2009,07,05,14,02,23.80
2009,07,05,14,03,23.80
2009,07,05,14,04,23.90
2009,07,05,14,05,24.00
2009,07,05,14,06,24.10
2009,07,05,14,07,24.10
2009,07,05,14,08,24.20
2009,07,05,14,09,24.20
2009,07,05,14,10,24.20
2009,07,05,14,11,24.10
2009,07,05,14,12,24.10
2009,07,05,14,13,23.90
2009,07,05,14,14,23.80
2009,07,05,14,15,23.80
2009,07,05,14,16,23.80
2009,07,05,14,17,23.90
2009,07,05,14,18,24.00
2009,07,05,14,19,24.10
2009,07,05,14,20,24.10
2009,07,05,14,21,24.10
2009,07,05,14,22,24.10
2009,07,05,14,23,24.00
2009,07,05,14,24,23.90
2009,07,05,14,25,23.80
2009,07,05,14,26,23.70
2009,07,05,14,27,23.70
2009,07,05,14,28,23.70
2009,07,05,14,29,23.80
2009,07,05,14,30,23.90
2009,07,05,14,31,24.20
2009,07,05,14,32,24.40
2009,07,05,14,33,24.70
2009,07,05,14,34,24.90
2009,07,05,14,35,25.10
2009,07,05,14,36,25.20
2009,07,05,14,37,25.30
2009,07,05,14,38,25.40
2009,07,05,14,39,25.40
2009,07,05,14,40,25.40
2009,07,05,14,41,25.40
2009,07,05,14,42,25.30
2009,07,05,14,43,25.30
2009,07,05,14,44,25.20
2009,07,05,14,45,25.10
2009,07,05,14,46,24.90
2009,07,05,14,47,24.80
2009,07,05,14,48,24.80
2009,07,05,14,49,24.80
2009,07,05,14,50,24.70
2009,07,05,14,51,24.50
2009,07,05,14,52,24.40
2009,07,05,14,53,24.20
2009,07,05,14,54,24.10
2009,07,05,14,55,24.00
2009,07,05,14,56,24.00
2009,07,05,14,57,23.90
2009,07,05,14,58,23.80
2009,07,05,14,59,23.70
2009,07,05,15,00,23.60
2009,07,05,15,01,23.70
2009,07,05,15,02,23.80
2009,07,05,15,03,23.90
2009,07,05,15,04,24.00
2009,07,05,15,05,24.10
2009,07,05,15,06,24.10
2009,07,05,15,07,24.20
2009,07,05,15,08,24.30
2009,07,05,15,09,24.30
2009,07,05,15,10,24.30
2009,07,05,15,11,24.20
2009,07,05,15,12,24.10
2009,07,05,15,13,24.10
2009,07,05,15,14,24.20
2009,07,05,15,15,24.20
2009,07,05,15,16,24.20
2009,07,05,15,17,24.20
2009,07,05,15,18,24.20
2009,07,05,15,19,24.10
2009,07,05,15,20,24.00
2009,07,05,15,21,23.90
2009,07,05,15,22,23.90
2009,07,05,15,23,23.90
2009,07,05,15,24,23.80
2009,07,05,15,25,23.80
2009,07,05,15,26,23.80
2009,07,05,15,27,23.70
2009,07,05,15,28,23.70
2009,07,05,15,29,23.70
2009,07,05,15,30,23.80
2009,07,05,15,31,23.80
2009,07,05,15,32,23.80
2009,07,05,15,33,23.90
2009,07,05,15,34,24.00
2009,07,05,15,35,24.00
2009,07,05,15,36,23.90
2009,07,05,15,37,23.80
2009,07,05,15,38,23.80
2009,07,05,15,39,23.80
2009,07,05,15,40,23.80
2009,07,05,15,41,23.70
2009,07,05,15,42,23.70
2009,07,05,15,43,23.70
2009,07,05,15,44,23.70
2009,07,05,15,45,23.70
2009,07,05,15,46,23.80
2009,07,05,15,47,23.90
2009,07,05,15,48,24.00
2009,07,05,15,49,24.10
2009,07,05,15,50,24.20
2009,07,05,15,51,24.30
2009,07,05,15,52,24.40
2009,07,05,15,53,24.60
2009,07,05,15,54,24.60
2009,07,05,15,55,24.60
2009,07,05,15,56,24.50
2009,07,05,15,57,24.40
2009,07,05,15,58,24.30
2009,07,05,15,59,24.20
2009,07,05,16,00,24.10
2009,07,05,16,01,24.10
2009,07,05,16,02,24.10
2009,07,05,16,03,24.10
2009,07,05,16,04,24.10
2009,07,05,16,05,24.20
2009,07,05,16,06,24.30
2009,07,05,16,07,24.30
2009,07,05,16,08,24.30
2009,07,05,16,09,24.30
2009,07,05,16,10,24.30
2009,07,05,16,11,24.40
2009,07,05,16,12,24.40
2009,07,05,16,13,24.40
2009,07,05,16,14,24.40
2009,07,05,16,15,24.30
2009,07,05,16,16,24.30
2009,07,05,16,17,24.40
2009,07,05,16,18,24.50
2009,07,05,16,19,24.60
2009,07,05,16,20,24.70
2009,07,05,16,21,24.80
2009,07,05,16,22,25.00
2009,07,05,16,23,25.20
2009,07,05,16,24,25.40
2009,07,05,16,25,25.70
2009,07,05,16,26,25.80
2009,07,05,16,27,25.80
2009,07,05,16,28,25.80
2009,07,05,16,29,25.80
2009,07,05,16,30,25.80
2009,07,05,16,31,25.70
2009,07,05,16,32,25.60
2009,07,05,16,33,25.50
2009,07,05,16,34,25.40
2009,07,05,16,35,25.30
2009,07,05,16,36,25.10
2009,07,05,16,37,24.90
2009,07,05,16,38,24.70
2009,07,05,16,39,24.40
2009,07,05,16,40,24.30
2009,07,05,16,41,24.20
2009,07,05,16,42,24.10
2009,07,05,16,43,24.10
2009,07,05,16,44,24.00
2009,07,05,16,45,24.00
2009,07,05,16,46,24.00
2009,07,05,16,47,24.00
2009,07,05,16,48,24.10
2009,07,05,16,49,24.10
2009,07,05,16,50,24.20
2009,07,05,16,51,24.30
2009,07,05,16,52,24.30
2009,07,05,16,53,24.40
2009,07,05,16,54,24.40
2009,07,05,16,55,24.30
2009,07,05,16,56,24.30
2009,07,05,16,57,24.30
2009,07,05,16,58,24.30
2009,07,05,16,59,24.20
2009,07,05,17,00,24.10
2009,07,05,17,01,24.10
2009,07,05,17,02,24.10
2009,07,05,17,03,24.10
2009,07,05,17,04,24.20
2009,07,05,17,05,24.30
2009,07,05,17,06,24.30
2009,07,05,17,07,24.40
2009,07,05,17,08,24.50
2009,07,05,17,09,24.60
2009,07,05,17,10,24.60
2009,07,05,17,11,24.70
2009,07,05,17,12,24.70
2009,07,05,17,13,24.80
2009,07,05,17,14,24.80
2009,07,05,17,15,24.80
2009,07,05,17,16,24.80
2009,07,05,17,17,24.80
2009,07,05,17,18,24.70
2009,07,05,17,19,24.70